COSMOS 2251 DEB, 35902

Orbit data source: Space-Track

COSMOS 2251 DEB, 35902 is space debris in LEO originally from a launch on Wed, 16 Jun 1993 UTC launched from the Plesetsk Missile And Space Complex (PKMTR). The debris from Iridium 33, an American commercial communications satellite, has been tracked extensively since its accidental collision with the defunct Russian satellite Cosmos 2251 in 2009. This event, occurring at high speed in low Earth orbit (LEO), generated thousands of pieces of space debris, significantly increasing the risk of further collisions. The Iridium 33 debris cloud has impacted space traffic management and orbital debris mitigation strategies, making it a subject of ongoing study in space situational awareness.

Loading next visibility...
Identifier
35902, 1993-036AUR
Orbit
LEO
Country
Flag of CISCIS
Related business
Manufacturer
Unknown
Mission
Spacecraft
Bus & Motor
Unknown
Mass
Unknown
Launch date (UTC)
1993-06-16 (33 years ago)
Launch vehicle
Unknown
Launch site
Plesetsk Missile And Space Complex (PKMTR)
Object type
Payload
Rocket body
Debris
Shape & HBR
Unknown shape, 0.1 m
Radar Cross Section
Small (<0.1 m²)

Expand to show TLE details & history
Last TLE update: 2 weeks ago

TLE from 2 weeks ago
0 COSMOS 2251 DEB
1 35902U 93036AUR 26242.38348413  .00001461  00000-0  56643-3 0  9999
2 35902  73.9810 120.9905 0102216 177.7440 182.4192 14.28009393648494
Epoch: 2026-08-30T09:12Z
TLE epoch observation values (Epoch: 2026-08-30T09:12:13.028Z)
Latitude
-0.00003°
Longitude
4.35635°
Altitude
874.295 km
Speed
7.377 km/s
True Right ascension
08h 03m 57s
True Declination
0° 00' 00"
Sunlit
Object was in daylight at epoch
Visualization orbit readout
Latitude
Unknown
Longitude
Unknown
Altitude
Unknown
Speed
Unknown
Apparent Right ascension
Unknown
Apparent Declination
Unknown
Sunlit
N/A
Visualization observer readout
Local Sidereal Time
02:23:16
Azimuth
Unknown
Elevation
Unknown
Doppler factor
Unknown
Orbital elements
Apogee altitude
869.361 km
Perigee altitude
722.698 km
Semi-major axis
7,174.167 km
Eccentricity
0.01022
Inclination
73.981°
RAAN
120.9905°
Arg. of periapsis
177.744°
True anomaly
182.37038°
Mean anomaly
182.4192°
Eccentric anomaly
182.39473°
Mean motion
3.57179 °/min
Orbital period
100.79 mins
BSTAR
0.00056643

Documentation

Showing up to 5 results
|